• In Kazakhstan
  • List of Countries
  • For 7 days
  • Water Temperature
  • Weather Map
  • News
  • Weather Widgets
  • user-avatar
    Login

    Hourly Weather Nakhchivan

    Today, 13 November, Wednesday

    Time Temperature Precipitation Wind Pressure Humidity
    00:00 +8°C° 0 mm 0 mps 690 mmHg 31%
    01:00 +8°C° 0 mm 0 mps 690 mmHg 33%
    02:00 +7°C° 0 mm 0 mps 690 mmHg 34%
    03:00 +7°C° 0 mm 0 mps 690 mmHg 36%
    04:00 +7°C° 0 mm 0 mps 690 mmHg 38%
    05:00 +6°C° 0 mm 0 mps 690 mmHg 39%
    06:00 +6°C° 0 mm 0 mps 689 mmHg 41%
    07:00 +8°C° 0 mm 0 mps 690 mmHg 36%
    08:00 +10°C° 0 mm 0 mps 691 mmHg 32%
    09:00 +12°C° 0 mm 0 mps 691 mmHg 27%
    10:00 +13°C° 0 mm 0 mps 691 mmHg 25%
    11:00 +14°C° 0 mm 0 mps 691 mmHg 24%
    12:00 +15°C° 0 mm 0 mps 691 mmHg 22%
    13:00 +15°C° 0 mm 0 mps 691 mmHg 22%
    14:00 +15°C° 0 mm 0 mps 690 mmHg 21%
    15:00 +16°C° 0 mm 0 mps 690 mmHg 21%
    16:00 +14°C° 0 mm 0 mps 690 mmHg 24%
    17:00 +12°C° 0 mm 0 mps 690 mmHg 28%
    18:00 +11°C° 0 mm 0 mps 690 mmHg 31%
    19:00 +10°C° 0 mm 0 mps 690 mmHg 32%
    20:00 +10°C° 0 mm 0 mps 690 mmHg 33%
    21:00 +10°C° 0 mm 0 mps 690 mmHg 35%
    22:00 +9°C° 0 mm 0 mps 690 mmHg 36%
    23:00 +9°C° 0 mm 0 mps 690 mmHg 38%

    Tomorrow, 14 November, Thursday

    Time Temperature Precipitation Wind Pressure Humidity
    00:00 +8°C° 0 mm 0 mps 690 mmHg 39%
    01:00 +8°C° 0 mm 0 mps 689 mmHg 41%
    02:00 +7°C° 0 mm 0 mps 689 mmHg 43%
    03:00 +7°C° 0 mm 0 mps 689 mmHg 45%
    04:00 +6°C° 0 mm 0 mps 689 mmHg 46%
    05:00 +6°C° 0 mm 0 mps 689 mmHg 46%
    06:00 +6°C° 0 mm 0 mps 689 mmHg 47%
    07:00 +8°C° 0 mm 0 mps 689 mmHg 42%
    08:00 +9°C° 0 mm 0 mps 690 mmHg 37%
    09:00 +11°C° 0 mm 0 mps 690 mmHg 32%
    10:00 +12°C° 0 mm 0 mps 690 mmHg 29%
    11:00 +13°C° 0 mm 0 mps 690 mmHg 27%
    12:00 +14°C° 0 mm 0 mps 690 mmHg 25%
    13:00 +16°C° 0 mm 1 mps 690 mmHg 24%
    14:00 +16°C° 0 mm 1 mps 690 mmHg 23%
    15:00 +16°C° 0 mm 1 mps 689 mmHg 22%
    16:00 +15°C° 0 mm 1 mps 689 mmHg 26%
    17:00 +12°C° 0 mm 0 mps 689 mmHg 30%
    18:00 +11°C° 0 mm 0 mps 689 mmHg 34%
    19:00 +10°C° 0 mm 0 mps 689 mmHg 36%
    20:00 +9°C° 0 mm 0 mps 690 mmHg 37%
    21:00 +9°C° 0 mm 0 mps 690 mmHg 39%
    22:00 +8°C° 0 mm 0 mps 690 mmHg 40%
    23:00 +8°C° 0 mm 0 mps 689 mmHg 42%

    Day after tomorrow, 15 November, Friday

    Time Temperature Precipitation Wind Pressure Humidity
    00:00 +9°C° 0 mm 1 mps 689 mmHg 44%
    01:00 +8°C° 0 mm 1 mps 689 mmHg 46%
    02:00 +8°C° 0 mm 1 mps 689 mmHg 48%
    03:00 +7°C° 0 mm 1 mps 689 mmHg 51%
    04:00 +7°C° 0 mm 1 mps 688 mmHg 52%
    05:00 +6°C° 0 mm 1 mps 688 mmHg 54%
    06:00 +5°C° 0 mm 0 mps 688 mmHg 56%
    07:00 +8°C° 0 mm 1 mps 688 mmHg 51%
    08:00 +9°C° 0 mm 1 mps 689 mmHg 45%
    09:00 +11°C° 0 mm 1 mps 689 mmHg 40%
    10:00 +12°C° 0 mm 1 mps 689 mmHg 38%
    11:00 +13°C° 0 mm 2 mps 689 mmHg 35%
    12:00 +14°C° 0 mm 2 mps 689 mmHg 32%
    13:00 +14°C° 0 mm 1 mps 689 mmHg 38%
    14:00 +14°C° 0 mm 2 mps 689 mmHg 36%
    15:00 +14°C° 0 mm 2 mps 689 mmHg 34%
    16:00 +13°C° 0 mm 2 mps 689 mmHg 41%
    17:00 +12°C° 0 mm 2 mps 689 mmHg 48%
    18:00 +9°C° 0 mm 3 mps 689 mmHg 55%
    19:00 +8°C° 0 mm 3 mps 689 mmHg 57%
    20:00 +8°C° 0 mm 3 mps 689 mmHg 59%
    21:00 +7°C° 0 mm 3 mps 690 mmHg 61%
    22:00 +5°C° 0 mm 3 mps 690 mmHg 62%
    23:00 +6°C° 0 mm 2 mps 690 mmHg 64%

    16 November, Saturday

    Time Temperature Precipitation Wind Pressure Humidity
    00:00 +5°C° 0 mm 2 mps 690 mmHg 66%
    01:00 +5°C° 0 mm 2 mps 690 mmHg 66%
    02:00 +5°C° 0 mm 2 mps 691 mmHg 67%
    03:00 +6°C° 0 mm 1 mps 691 mmHg 67%
    04:00 +5°C° 0 mm 1 mps 691 mmHg 67%
    05:00 +5°C° 0 mm 1 mps 691 mmHg 67%
    06:00 +5°C° 0 mm 1 mps 691 mmHg 67%
    07:00 +6°C° 0 mm 1 mps 692 mmHg 62%
    08:00 +6°C° 0 mm 1 mps 692 mmHg 57%
    09:00 +7°C° 0 mm 1 mps 693 mmHg 52%
    10:00 +7°C° 0 mm 2 mps 692 mmHg 48%
    11:00 +8°C° 0 mm 2 mps 692 mmHg 43%
    12:00 +9°C° 0 mm 2 mps 692 mmHg 39%
    13:00 +9°C° 0 mm 2 mps 692 mmHg 38%
    14:00 +9°C° 0 mm 3 mps 692 mmHg 37%
    15:00 +10°C° 0 mm 3 mps 692 mmHg 35%
    16:00 +9°C° 0 mm 3 mps 692 mmHg 40%
    17:00 +8°C° 0 mm 3 mps 692 mmHg 45%
    18:00 +7°C° 0 mm 3 mps 692 mmHg 49%
    19:00 +5°C° 0 mm 3 mps 693 mmHg 51%
    20:00 +5°C° 0 mm 3 mps 693 mmHg 52%
    21:00 +4°C° 0 mm 3 mps 693 mmHg 54%
    22:00 +5°C° 0 mm 2 mps 694 mmHg 55%
    23:00 +5°C° 0 mm 2 mps 694 mmHg 57%

    17 November, Sunday

    Time Temperature Precipitation Wind Pressure Humidity
    00:00 +5°C° 0 mm 2 mps 694 mmHg 59%
    01:00 +4°C° 0 mm 2 mps 694 mmHg 60%
    02:00 +5°C° 0 mm 1 mps 693 mmHg 62%
    03:00 +5°C° 0 mm 1 mps 693 mmHg 64%
    04:00 +4°C° 0 mm 1 mps 693 mmHg 65%
    05:00 +4°C° 0 mm 1 mps 693 mmHg 66%
    06:00 +4°C° 0 mm 1 mps 693 mmHg 67%
    07:00 +5°C° 0 mm 1 mps 694 mmHg 63%
    08:00 +6°C° 0 mm 1 mps 694 mmHg 60%
    09:00 +6°C° 0 mm 1 mps 694 mmHg 56%
    10:00 +7°C° 0 mm 1 mps 694 mmHg 52%
    11:00 +7°C° 0 mm 2 mps 694 mmHg 49%
    12:00 +8°C° 0 mm 2 mps 693 mmHg 45%
    13:00 +9°C° 0 mm 2 mps 693 mmHg 44%
    14:00 +9°C° 0 mm 2 mps 693 mmHg 44%
    15:00 +10°C° 0 mm 2 mps 693 mmHg 43%
    16:00 +9°C° 0 mm 2 mps 693 mmHg 46%
    17:00 +9°C° 0 mm 2 mps 693 mmHg 50%
    18:00 +8°C° 0 mm 2 mps 693 mmHg 53%
    19:00 +7°C° 0 mm 2 mps 693 mmHg 56%
    20:00 +7°C° 0 mm 2 mps 693 mmHg 59%
    21:00 +6°C° 0 mm 2 mps 693 mmHg 61%
    22:00 +6°C° 0 mm 2 mps 693 mmHg 63%
    23:00 +5°C° 0 mm 2 mps 692 mmHg 65%

    18 November, Monday

    Time Temperature Precipitation Wind Pressure Humidity
    00:00 +5°C° 0 mm 2 mps 692 mmHg 67%
    01:00 +4°C° 0 mm 2 mps 692 mmHg 69%
    02:00 +4°C° 0 mm 2 mps 692 mmHg 70%
    03:00 +5°C° 0 mm 1 mps 692 mmHg 72%
    04:00 +4°C° 0 mm 1 mps 692 mmHg 74%
    05:00 +4°C° 0 mm 1 mps 691 mmHg 76%
    06:00 +3°C° 0 mm 0 mps 691 mmHg 77%
    07:00 +4°C° 0 mm 0 mps 692 mmHg 72%
    08:00 +6°C° 0 mm 1 mps 692 mmHg 66%
    09:00 +7°C° 0 mm 1 mps 692 mmHg 61%
    10:00 +9°C° 0 mm 1 mps 692 mmHg 56%
    11:00 +10°C° 0 mm 1 mps 692 mmHg 52%
    12:00 +11°C° 0 mm 1 mps 691 mmHg 48%
    13:00 +11°C° 0 mm 1 mps 691 mmHg 47%
    14:00 +12°C° 0 mm 1 mps 691 mmHg 45%
    15:00 +12°C° 0 mm 1 mps 691 mmHg 43%
    16:00 +11°C° 0 mm 1 mps 691 mmHg 47%
    17:00 +11°C° 0 mm 1 mps 691 mmHg 52%
    18:00 +10°C° 0 mm 1 mps 691 mmHg 56%
    19:00 +9°C° 0 mm 1 mps 691 mmHg 59%
    20:00 +8°C° 0 mm 1 mps 691 mmHg 62%
    21:00 +8°C° 0 mm 1 mps 691 mmHg 65%
    22:00 +7°C° 0 mm 1 mps 691 mmHg 67%
    23:00 +7°C° 0 mm 1 mps 690 mmHg 69%
    Show more